Moron de la Frontera, Spain

3:57 PM CEST on June 25, 2017 (GMT +0200)
Moron Air Base

Weather History for LEMO - June, 2013

Change the Weather History Date:

Saturday, June 29, 2013

  Actual Average Record
Temperature  
Mean Temperature 80 °F -  
Max Temperature 96 °F 92 °F 102 °F (2004)
Min Temperature 64 °F 64 °F 53 °F (1997)
Cooling Degree Days 15    
Growing Degree Days 30 (Base 50)    
Moisture  
Dew Point 51 °F    
Average Humidity 37    
Maximum Humidity 60    
Minimum Humidity 22    
Precipitation  
Precipitation 0.00 in - - ()
Sea Level Pressure  
Sea Level Pressure 30.07 in    
Wind  
Wind Speed 6 mph ()    
Max Wind Speed 17 mph    
Max Gust Speed 28 mph    
Averages and records for this station are not official NWS values.
T = Trace of Precipitation, MM = Missing Value Source: Averaged Metar Reports

Daily Weather History Graph

Daily Weather History Graph

Search for Another Location

Airport or City:

Trip Planner

Search our weather history database for the weather conditions in past years. The results will help you decide how hot, cold, wet, or windy it might be!

Date:

Astronomy

Jun. 29, 2013 Rise Set
Actual Time 7:05 AM CEST 9:46 PM CEST
Civil Twilight 6:34 AM CEST 10:17 PM CEST
Nautical Twilight 5:55 AM CEST 10:55 PM CEST
Astronomical Twilight 5:12 AM CEST 11:39 PM CEST
Moon 1:17 AM CEST (6/29) 1:52 PM CEST (6/29)
Length of Visible Light 15h 43m
Length of Day
14h 41m
Waning Gibbous, 58% of the Moon is Illuminated
Jun 29
Waning Gibbous
Jun 30
Last Quarter
Jul 8
New
Jul 16
First Quarter
Jul 22
Full

Hourly Weather History & Observations

Time (CEST) Temp. Dew Point Humidity Pressure Visibility Wind Dir Wind Speed Gust Speed Precip Events Conditions
12:00 AM 75.2 °F 53.6 °F 47% 30.09 in - Calm Calm - N/A   Clear
1:00 AM 71.6 °F 53.6 °F 53% 30.12 in - West 3.5 mph - N/A   Clear
2:00 AM 69.8 °F 53.6 °F 56% 30.12 in - Calm Calm - N/A   Clear
3:00 AM 69.8 °F 53.6 °F 56% 30.12 in - Calm Calm - N/A   Clear
4:00 AM 66.2 °F 51.8 °F 60% 30.09 in - East 3.5 mph - N/A   Clear
5:00 AM 66.2 °F 50.0 °F 56% 30.12 in - NNE 4.6 mph - N/A   Clear
6:00 AM 64.4 °F 50.0 °F 59% 30.09 in - NNE 5.8 mph - N/A   Clear
7:00 AM 66.2 °F 46.4 °F 49% 30.09 in - NNE 4.6 mph - N/A   Clear
8:00 AM 69.8 °F 48.2 °F 46% 30.09 in - ENE 5.8 mph - N/A   Clear
9:00 AM 75.2 °F 48.2 °F 38% 30.12 in - ENE 10.4 mph - N/A   Clear
10:00 AM 80.6 °F 50.0 °F 34% 30.12 in - ENE 9.2 mph - N/A   Clear
11:00 AM 86.0 °F 50.0 °F 29% 30.09 in - East 10.4 mph - N/A   Clear
12:00 PM 89.6 °F 51.8 °F 27% 30.09 in - East 8.1 mph - N/A   Clear
1:00 PM 93.2 °F 50.0 °F 23% 30.06 in - East 16.1 mph 27.6 mph N/A   Clear
2:00 PM 95.0 °F 51.8 °F 23% 30.06 in - ESE 16.1 mph - N/A   Clear
3:00 PM 95.0 °F 51.8 °F 23% 30.06 in - East 15.0 mph - N/A   Clear
4:00 PM 96.8 °F 51.8 °F 22% 30.04 in - SE 16.1 mph - N/A   Clear
5:00 PM 95.0 °F 50.0 °F 22% 30.04 in - SE 16.1 mph - N/A   Clear
6:00 PM 95.0 °F 50.0 °F 22% 30.04 in - ESE 17.3 mph - N/A   Clear
7:00 PM 95.0 °F 51.8 °F 23% 30.01 in - SE 11.5 mph - N/A   Clear
8:00 PM 93.2 °F 50.0 °F 23% 30.01 in - SE 16.1 mph - N/A   Clear
9:00 PM 89.6 °F 50.0 °F 26% 30.01 in - SE 6.9 mph - N/A   Clear
10:00 PM 84.2 °F 48.2 °F 29% 30.01 in - Calm Calm - N/A   Clear
11:00 PM 80.6 °F 48.2 °F 32% 30.04 in - SE 3.5 mph - N/A   Clear